Fairbanks Ft. Wainwright, AK

3:47 PM AKST on December 16, 2017 (GMT -0900)
Ladd Army Air Field

Weather History for PAFB - November, 2013

Change the Weather History Date:

Thursday, November 14, 2013

  Actual Average Record
Temperature  
Mean Temperature 30 °F -  
Max Temperature 42 °F 10 °F 42 °F (2013)
Min Temperature 16 °F 0 °F -23 °F (2006)
Degree Days  
Heating Degree Days 34    
Moisture  
Dew Point 30 °F    
Average Humidity 89    
Maximum Humidity 100    
Minimum Humidity 60    
Precipitation  
Precipitation 0.06 in - - ()
Snow  
Snow 0.00 in - - ()
Snow Depth 8.00 in    
Sea Level Pressure  
Sea Level Pressure 29.72 in    
Wind  
Wind Speed 27 mph (West)    
Max Wind Speed 43 mph    
Max Gust Speed 54 mph    
Visibility 5 miles    
Events Rain , Snow    
Averages and records for this station are not official NWS values.
T = Trace of Precipitation, MM = Missing Value Source: NWS Daily Summary

Daily Weather History Graph

Daily Weather History Graph

Search for Another Location

Airport or City:

Trip Planner

Search our weather history database for the weather conditions in past years. The results will help you decide how hot, cold, wet, or windy it might be!

Date:

Astronomy

Nov. 14, 2013 Rise Set
Actual Time 9:23 AM AKST 3:45 PM AKST
Civil Twilight 8:21 AM AKST 4:47 PM AKST
Nautical Twilight 7:19 AM AKST 5:49 PM AKST
Astronomical Twilight 6:21 AM AKST 6:47 PM AKST
Moon 3:07 PM AKST (11/14) 5:25 AM AKST (11/14)
Length of Visible Light 8h 25m
Length of Day
6h 21m
Waxing Gibbous, 92% of the Moon is Illuminated
Nov 14
Waxing Gibbous
Nov 17
Full
Nov 25
Last Quarter
Dec 2
New
Dec 9
First Quarter

Hourly Weather History & Observations

Time (AKST) Temp. Windchill Dew Point Humidity Pressure Visibility Wind Dir Wind Speed Gust Speed Precip Events Conditions
12:56 AM 42.1 °F 29.5 °F 28.9 °F 60% 29.61 in 10.0 mi West 42.6 mph 54.1 mph N/A   Scattered Clouds
1:28 AM 37.4 °F 25.6 °F 33.8 °F 87% 29.61 in 6.2 mi West 26.5 mph 40.3 mph 0.02 in Rain Light Rain
1:56 AM 37.0 °F 23.9 °F 36.0 °F 96% 29.67 in 6.0 mi WNW 33.4 mph 43.7 mph 0.04 in Rain Light Rain
2:09 AM 35.6 °F 24.5 °F 35.6 °F 100% 29.64 in 10.0 mi West 20.7 mph 27.6 mph 0.00 in Rain Light Rain
2:36 AM 35.6 °F 23.2 °F 35.6 °F 100% 29.66 in 2.5 mi WNW 26.5 mph 33.4 mph 0.01 in Snow Light Snow
2:44 AM 33.8 °F 21.6 °F - N/A% 29.66 in 1.2 mi West 23.0 mph 33.4 mph 0.01 in Snow Light Snow
2:54 AM 33.8 °F 21.3 °F - N/A% 29.67 in 0.8 mi West 24.2 mph 36.8 mph 0.02 in Snow Light Snow
2:56 AM 33.1 °F 20.3 °F - N/A% 29.70 in 0.8 mi West 24.2 mph 36.8 mph 0.02 in Snow Light Snow
2:59 AM 33.8 °F 21.6 °F - N/A% 29.67 in 1.0 mi West 23.0 mph 36.8 mph 0.00 in Snow Light Snow
3:09 AM 33.8 °F 21.0 °F 33.8 °F 100% 29.68 in 2.5 mi West 25.3 mph 34.5 mph 0.00 in Snow Light Snow
3:19 AM 33.8 °F 21.0 °F 33.8 °F 100% 29.69 in 1.8 mi West 25.3 mph 42.6 mph 0.00 in Snow Light Snow
3:31 AM 33.8 °F 19.4 °F 32.0 °F 93% 29.69 in - West 33.4 mph 42.6 mph 0.00 in Snow Light Snow
3:39 AM 33.8 °F 20.5 °F 33.8 °F 100% 29.67 in 6.2 mi West 27.6 mph 42.6 mph 0.00 in Snow Light Snow
3:56 AM 35.1 °F 22.5 °F 32.0 °F 89% 29.70 in 10.0 mi West 26.5 mph 38.0 mph 0.00 in   Mostly Cloudy
4:56 AM 35.1 °F 23.5 °F 32.0 °F 89% 29.71 in 9.0 mi West 21.9 mph 35.7 mph 0.00 in Snow Light Snow
6:15 AM 35.6 °F 24.2 °F 33.8 °F 93% 29.67 in 7.0 mi WSW 21.9 mph 28.8 mph N/A Snow Light Snow
6:55 AM 35.6 °F 24.2 °F 33.8 °F 93% 29.68 in 6.0 mi WSW 21.9 mph 29.9 mph N/A Snow Light Snow
7:55 AM 35.6 °F 23.0 °F 26.6 °F 70% 29.67 in 7.0 mi West 27.6 mph 36.8 mph N/A Snow Light Snow
8:55 AM 35.6 °F 23.2 °F 26.6 °F 70% 29.67 in 7.0 mi West 26.5 mph 42.6 mph N/A   Overcast
9:22 AM 35.6 °F 22.5 °F 26.6 °F 70% 29.67 in 4.0 mi West 29.9 mph 39.1 mph N/A Snow Light Snow
9:45 AM 33.8 °F 21.0 °F 30.2 °F 87% 29.68 in 1.0 mi West 25.3 mph 35.7 mph N/A Snow Light Snow
9:55 AM 33.8 °F 21.9 °F 30.2 °F 87% 29.71 in 1.0 mi West 21.9 mph 35.7 mph N/A Snow Light Snow
10:30 AM 33.8 °F 23.9 °F 32.0 °F 93% 29.71 in 1.5 mi West 15.0 mph - N/A Snow Light Snow
10:55 AM 33.8 °F 22.8 °F 32.0 °F 93% 29.73 in 2.5 mi West 18.4 mph - N/A Snow Light Snow
9:56 PM 21.0 °F 9.9 °F 19.0 °F 92% 30.04 in 10.0 mi West 10.4 mph - N/A   Scattered Clouds
10:56 PM 19.0 °F 8.2 °F 17.1 °F 92% 30.06 in 10.0 mi WSW 9.2 mph - N/A   Clear
11:56 PM 16.0 °F 3.6 °F 15.1 °F 96% 30.09 in 10.0 mi West 10.4 mph - N/A   Clear